Time,TemperatureF,DewpointF,PressureIn,WindDirection,WindDirectionDegrees,WindSpeedMPH,WindSpeedGustMPH,Humidity,HourlyPrecipIn,Conditions,Clouds,dailyrainin,SoftwareType,DateUTC
2013-07-16 00:01:00,57.3,54.0,29.87,SSW,206,0.0,-999.0,87,-99.99,,,0.00,weatherlink.com 1.10,2013-07-16 07:01:00,
2013-07-16 00:16:00,57.3,54.0,29.87,South,188,4.0,-999.0,87,-99.99,,,0.00,weatherlink.com 1.10,2013-07-16 07:16:00,
2013-07-16 00:31:00,57.2,53.0,29.87,SSW,198,0.0,-999.0,87,-99.99,,,0.00,weatherlink.com 1.10,2013-07-16 07:31:00,
2013-07-16 00:46:00,57.0,53.0,29.87,WSW,249,1.0,-999.0,87,-99.99,,,0.00,weatherlink.com 1.10,2013-07-16 07:46:00,
2013-07-16 01:01:00,57.0,53.0,29.87,SSW,197,0.0,-999.0,87,-99.99,,,0.00,weatherlink.com 1.10,2013-07-16 08:01:00,
2013-07-16 01:17:00,57.0,53.0,29.87,WSW,253,3.0,-999.0,87,-99.99,,,0.00,weatherlink.com 1.10,2013-07-16 08:17:00,
2013-07-16 01:32:00,56.9,53.0,29.87,WSW,253,1.0,-999.0,87,-99.99,,,0.00,weatherlink.com 1.10,2013-07-16 08:32:00,
2013-07-16 01:47:00,56.9,53.0,29.87,WSW,250,0.0,-999.0,88,-99.99,,,0.00,weatherlink.com 1.10,2013-07-16 08:47:00,
2013-07-16 02:02:00,56.7,53.0,29.87,WSW,251,3.0,-999.0,87,-99.99,,,0.00,weatherlink.com 1.10,2013-07-16 09:02:00,
2013-07-16 02:17:00,56.5,53.0,29.87,NW,319,0.0,-999.0,87,-99.99,,,0.00,weatherlink.com 1.10,2013-07-16 09:17:00,
2013-07-16 02:32:00,56.3,53.0,29.87,WNW,286,1.0,-999.0,87,-99.99,,,0.00,weatherlink.com 1.10,2013-07-16 09:32:00,
2013-07-16 02:47:00,56.3,53.0,29.87,SSW,212,0.0,-999.0,87,-99.99,,,0.00,weatherlink.com 1.10,2013-07-16 09:47:00,
2013-07-16 03:02:00,56.3,52.0,29.87,SW,219,2.0,-999.0,86,-99.99,,,0.00,weatherlink.com 1.10,2013-07-16 10:02:00,
2013-07-16 03:17:00,56.5,52.0,29.87,SW,236,0.0,-999.0,86,-99.99,,,0.00,weatherlink.com 1.10,2013-07-16 10:17:00,
2013-07-16 03:32:00,56.5,52.0,29.87,SW,218,3.0,-999.0,85,-99.99,,,0.00,weatherlink.com 1.10,2013-07-16 10:32:00,
2013-07-16 03:47:00,56.5,52.0,29.87,ESE,106,0.0,-999.0,85,-99.99,,,0.00,weatherlink.com 1.10,2013-07-16 10:47:00,
2013-07-16 04:02:00,56.5,52.0,29.87,WSW,238,0.0,-999.0,84,-99.99,,,0.00,weatherlink.com 1.10,2013-07-16 11:02:00,
2013-07-16 04:17:00,56.5,51.0,29.87,South,184,3.0,-999.0,83,-99.99,,,0.00,weatherlink.com 1.10,2013-07-16 11:17:00,
2013-07-16 04:32:00,56.3,51.0,29.87,WSW,240,3.0,-999.0,82,-99.99,,,0.00,weatherlink.com 1.10,2013-07-16 11:32:00,
2013-07-16 04:47:00,56.3,51.0,29.88,SSW,207,0.0,-999.0,82,-99.99,,,0.00,weatherlink.com 1.10,2013-07-16 11:47:00,
2013-07-16 05:02:00,56.3,51.0,29.88,WSW,252,0.0,-999.0,82,-99.99,,,0.00,weatherlink.com 1.10,2013-07-16 12:02:00,
2013-07-16 05:17:00,56.3,51.0,29.89,WSW,252,0.0,-999.0,82,-99.99,,,0.00,weatherlink.com 1.10,2013-07-16 12:17:00,
2013-07-16 05:32:00,56.5,51.0,29.89,West,263,0.0,-999.0,83,-99.99,,,0.00,weatherlink.com 1.10,2013-07-16 12:32:00,
2013-07-16 05:47:00,56.5,52.0,29.89,SSE,148,3.0,-999.0,84,-99.99,,,0.00,weatherlink.com 1.10,2013-07-16 12:47:00,
2013-07-16 06:02:00,56.5,52.0,29.90,WSW,245,0.0,-999.0,86,-99.99,,,0.00,weatherlink.com 1.10,2013-07-16 13:02:00,
2013-07-16 06:17:00,56.3,53.0,29.90,SSE,149,0.0,-999.0,87,-99.99,,,0.00,weatherlink.com 1.10,2013-07-16 13:17:00,
2013-07-16 06:32:00,56.2,53.0,29.90,South,173,0.0,-999.0,88,-99.99,,,0.00,weatherlink.com 1.10,2013-07-16 13:32:00,
2013-07-16 06:47:00,56.0,52.0,29.91,SW,236,0.0,-999.0,87,-99.99,,,0.00,weatherlink.com 1.10,2013-07-16 13:47:00,
2013-07-16 07:02:00,55.9,52.0,29.91,WSW,240,0.0,-999.0,87,-99.99,,,0.00,weatherlink.com 1.10,2013-07-16 14:02:00,
2013-07-16 07:17:00,55.9,52.0,29.91,West,275,0.0,-999.0,85,-99.99,,,0.00,weatherlink.com 1.10,2013-07-16 14:17:00,
2013-07-16 07:32:00,55.9,51.0,29.92,SSE,149,1.0,-999.0,83,-99.99,,,0.00,weatherlink.com 1.10,2013-07-16 14:32:00,
2013-07-16 07:47:00,56.3,51.0,29.92,SSW,213,1.0,-999.0,82,-99.99,,,0.00,weatherlink.com 1.10,2013-07-16 14:47:00,
2013-07-16 08:02:00,56.6,51.0,29.93,WSW,248,0.0,-999.0,81,-99.99,,,0.00,weatherlink.com 1.10,2013-07-16 15:02:00,
2013-07-16 08:17:00,56.5,50.0,29.93,WSW,249,1.0,-999.0,80,-99.99,,,0.00,weatherlink.com 1.10,2013-07-16 15:17:00,
2013-07-16 08:32:00,56.6,51.0,29.94,NE,44,1.0,-999.0,80,-99.99,,,0.00,weatherlink.com 1.10,2013-07-16 15:32:00,
2013-07-16 08:47:00,56.9,50.0,29.95,WSW,244,4.0,-999.0,78,-99.99,,,0.00,weatherlink.com 1.10,2013-07-16 15:47:00,
2013-07-16 09:02:00,56.7,50.0,29.95,WSW,244,0.0,-999.0,79,-99.99,,,0.00,weatherlink.com 1.10,2013-07-16 16:02:00,
2013-07-16 09:17:00,56.5,50.0,29.96,SSE,163,2.0,-999.0,80,-99.99,,,0.00,weatherlink.com 1.10,2013-07-16 16:17:00,
2013-07-16 09:32:00,56.6,51.0,29.96,SSW,200,1.0,-999.0,80,-99.99,,,0.00,weatherlink.com 1.10,2013-07-16 16:32:00,
2013-07-16 09:47:00,56.9,50.0,29.96,SSW,213,0.0,-999.0,79,-99.99,,,0.00,weatherlink.com 1.10,2013-07-16 16:47:00,
2013-07-16 10:02:00,57.2,50.0,29.96,ESE,115,0.0,-999.0,78,-99.99,,,0.00,weatherlink.com 1.10,2013-07-16 17:02:00,
2013-07-16 10:17:00,57.6,50.0,29.96,West,266,0.0,-999.0,77,-99.99,,,0.00,weatherlink.com 1.10,2013-07-16 17:17:00,
2013-07-16 10:32:00,57.8,51.0,29.97,SSE,164,0.0,-999.0,77,-99.99,,,0.00,weatherlink.com 1.10,2013-07-16 17:32:00,
2013-07-16 10:47:00,58.7,52.0,29.98,WSW,248,0.0,-999.0,77,-99.99,,,0.00,weatherlink.com 1.10,2013-07-16 17:47:00,
2013-07-16 11:02:00,59.2,51.0,29.98,WSW,242,2.0,-999.0,75,-99.99,,,0.00,weatherlink.com 1.10,2013-07-16 18:02:00,
2013-07-16 11:17:00,59.8,52.0,29.98,South,182,0.0,-999.0,74,-99.99,,,0.00,weatherlink.com 1.10,2013-07-16 18:17:00,
2013-07-16 11:32:00,60.9,53.0,29.98,SW,225,0.0,-999.0,75,-99.99,,,0.00,weatherlink.com 1.10,2013-07-16 18:32:00,
2013-07-16 11:47:00,61.3,53.0,29.99,East,79,0.0,-999.0,73,-99.99,,,0.00,weatherlink.com 1.10,2013-07-16 18:47:00,
2013-07-16 12:02:00,61.8,53.0,29.99,South,169,3.0,-999.0,72,-99.99,,,0.00,weatherlink.com 1.10,2013-07-16 19:02:00,
2013-07-16 12:17:00,62.6,53.0,29.99,South,184,0.0,-999.0,70,-99.99,,,0.00,weatherlink.com 1.10,2013-07-16 19:17:00,
2013-07-16 12:32:00,63.5,54.0,29.99,SSW,197,0.0,-999.0,70,-99.99,,,0.00,weatherlink.com 1.10,2013-07-16 19:32:00,
2013-07-16 12:47:00,64.3,53.0,30.00,WSW,243,1.0,-999.0,66,-99.99,,,0.00,weatherlink.com 1.10,2013-07-16 19:47:00,
2013-07-16 13:02:00,63.9,52.0,30.00,West,261,1.0,-999.0,66,-99.99,,,0.00,weatherlink.com 1.10,2013-07-16 20:02:00,
2013-07-16 13:17:00,64.0,53.0,30.00,WNW,289,2.0,-999.0,67,-99.99,,,0.00,weatherlink.com 1.10,2013-07-16 20:17:00,
2013-07-16 13:32:00,64.5,53.0,30.00,SSW,200,0.0,-999.0,67,-99.99,,,0.00,weatherlink.com 1.10,2013-07-16 20:32:00,
2013-07-16 13:47:00,64.7,54.0,30.00,WNW,292,0.0,-999.0,68,-99.99,,,0.00,weatherlink.com 1.10,2013-07-16 20:47:00,
2013-07-16 14:02:00,64.5,54.0,30.00,WSW,237,0.0,-999.0,68,-99.99,,,0.00,weatherlink.com 1.10,2013-07-16 21:02:00,
2013-07-16 14:17:00,64.8,54.0,30.00,SSW,194,1.0,-999.0,69,-99.99,,,0.00,weatherlink.com 1.10,2013-07-16 21:17:00,
2013-07-16 14:32:00,64.8,55.0,30.00,SE,125,0.0,-999.0,70,-99.99,,,0.00,weatherlink.com 1.10,2013-07-16 21:32:00,
2013-07-16 14:47:00,65.2,54.0,30.00,WSW,245,0.0,-999.0,68,-99.99,,,0.00,weatherlink.com 1.10,2013-07-16 21:47:00,
2013-07-16 15:02:00,65.6,54.0,30.00,WSW,244,0.0,-999.0,67,-99.99,,,0.00,weatherlink.com 1.10,2013-07-16 22:02:00,
2013-07-16 15:17:00,66.1,55.0,30.00,SW,227,0.0,-999.0,67,-99.99,,,0.00,weatherlink.com 1.10,2013-07-16 22:17:00,
2013-07-16 15:33:00,67.1,55.0,30.00,SW,234,0.0,-999.0,65,-99.99,,,0.00,weatherlink.com 1.10,2013-07-16 22:33:00,
2013-07-16 15:48:00,67.6,55.0,30.00,ENE,76,0.0,-999.0,64,-99.99,,,0.00,weatherlink.com 1.10,2013-07-16 22:48:00,
2013-07-16 16:03:00,68.4,54.0,29.99,SW,219,1.0,-999.0,61,-99.99,,,0.00,weatherlink.com 1.10,2013-07-16 23:03:00,
2013-07-16 16:18:00,68.1,55.0,29.99,SSW,199,0.0,-999.0,63,-99.99,,,0.00,weatherlink.com 1.10,2013-07-16 23:18:00,
2013-07-16 16:33:00,68.8,56.0,29.99,SW,231,0.0,-999.0,64,-99.99,,,0.00,weatherlink.com 1.10,2013-07-16 23:33:00,
2013-07-16 16:48:00,68.1,56.0,29.99,WSW,257,0.0,-999.0,66,-99.99,,,0.00,weatherlink.com 1.10,2013-07-16 23:48:00,
2013-07-16 17:03:00,67.6,55.0,29.99,SSW,193,5.0,-999.0,65,-99.99,,,0.00,weatherlink.com 1.10,2013-07-17 00:03:00,
2013-07-16 17:18:00,67.1,56.0,29.99,South,184,0.0,-999.0,67,-99.99,,,0.00,weatherlink.com 1.10,2013-07-17 00:18:00,
2013-07-16 17:33:00,67.6,57.0,29.98,West,261,0.0,-999.0,68,-99.99,,,0.00,weatherlink.com 1.10,2013-07-17 00:33:00,
2013-07-16 17:48:00,67.9,56.0,29.98,SW,215,0.0,-999.0,66,-99.99,,,0.00,weatherlink.com 1.10,2013-07-17 00:48:00,
2013-07-16 18:03:00,65.8,56.0,29.98,SW,223,1.0,-999.0,71,-99.99,,,0.00,weatherlink.com 1.10,2013-07-17 01:03:00,
2013-07-16 18:18:00,64.7,56.0,29.98,SW,230,0.0,-999.0,74,-99.99,,,0.00,weatherlink.com 1.10,2013-07-17 01:18:00,
2013-07-16 18:33:00,63.7,56.0,29.98,SW,229,3.0,-999.0,77,-99.99,,,0.00,weatherlink.com 1.10,2013-07-17 01:33:00,
2013-07-16 18:48:00,63.1,56.0,29.98,SW,218,0.0,-999.0,78,-99.99,,,0.00,weatherlink.com 1.10,2013-07-17 01:48:00,
2013-07-16 19:03:00,62.9,56.0,29.98,WSW,247,0.0,-999.0,77,-99.99,,,0.00,weatherlink.com 1.10,2013-07-17 02:03:00,
2013-07-16 19:18:00,62.3,56.0,29.98,WSW,238,0.0,-999.0,79,-99.99,,,0.00,weatherlink.com 1.10,2013-07-17 02:18:00,
2013-07-16 19:33:00,61.8,56.0,29.98,WSW,239,1.0,-999.0,81,-99.99,,,0.00,weatherlink.com 1.10,2013-07-17 02:33:00,
2013-07-16 19:48:00,61.5,56.0,29.98,SSW,200,2.0,-999.0,81,-99.99,,,0.00,weatherlink.com 1.10,2013-07-17 02:48:00,
2013-07-16 20:03:00,61.2,56.0,29.99,SW,234,0.0,-999.0,82,-99.99,,,0.00,weatherlink.com 1.10,2013-07-17 03:03:00,
2013-07-16 20:18:00,60.9,56.0,29.99,SSE,164,0.0,-999.0,83,-99.99,,,0.00,weatherlink.com 1.10,2013-07-17 03:18:00,
2013-07-16 20:33:00,60.7,55.0,30.00,SSW,194,2.0,-999.0,82,-99.99,,,0.00,weatherlink.com 1.10,2013-07-17 03:33:00,
2013-07-16 20:48:00,60.5,55.0,30.00,South,175,1.0,-999.0,82,-99.99,,,0.00,weatherlink.com 1.10,2013-07-17 03:48:00,
2013-07-16 21:03:00,60.4,55.0,30.00,SSE,157,0.0,-999.0,83,-99.99,,,0.00,weatherlink.com 1.10,2013-07-17 04:03:00,
2013-07-16 21:18:00,60.4,56.0,30.00,SSW,192,0.0,-999.0,84,-99.99,,,0.00,weatherlink.com 1.10,2013-07-17 04:18:00,
2013-07-16 21:33:00,60.2,55.0,30.00,SSW,196,0.0,-999.0,84,-99.99,,,0.00,weatherlink.com 1.10,2013-07-17 04:33:00,
2013-07-16 21:48:00,60.2,55.0,30.01,SSE,161,0.0,-999.0,84,-99.99,,,0.00,weatherlink.com 1.10,2013-07-17 04:48:00,
2013-07-16 22:03:00,60.2,55.0,30.02,SE,140,0.0,-999.0,83,-99.99,,,0.00,weatherlink.com 1.10,2013-07-17 05:03:00,
2013-07-16 22:18:00,60.1,55.0,30.03,SW,216,1.0,-999.0,82,-99.99,,,0.00,weatherlink.com 1.10,2013-07-17 05:18:00,
2013-07-16 22:33:00,60.1,55.0,30.03,ESE,103,1.0,-999.0,84,-99.99,,,0.00,weatherlink.com 1.10,2013-07-17 05:33:00,
2013-07-16 22:48:00,59.8,55.0,30.02,SSW,197,0.0,-999.0,84,-99.99,,,0.00,weatherlink.com 1.10,2013-07-17 05:48:00,
2013-07-16 23:03:00,59.9,55.0,30.03,SW,234,0.0,-999.0,85,-99.99,,,0.00,weatherlink.com 1.10,2013-07-17 06:03:00,
2013-07-16 23:18:00,59.8,55.0,30.03,ESE,121,0.0,-999.0,84,-99.99,,,0.00,weatherlink.com 1.10,2013-07-17 06:18:00,
2013-07-16 23:33:00,59.9,55.0,30.03,SSW,212,0.0,-999.0,84,-99.99,,,0.00,weatherlink.com 1.10,2013-07-17 06:33:00,
2013-07-16 23:48:00,59.8,55.0,30.03,SSE,162,0.0,-999.0,85,-99.99,,,0.00,weatherlink.com 1.10,2013-07-17 06:48:00,